ONEWEB-0175, 48073

Orbit data source: Space-Track

ONEWEB-0175, 48073 is a payload satellite owned by One Web (NAA) (UK) in LEO that was launched on Thu, 25 Mar 2021 UTC via a SOYUZ-2-1B launch vehicle from the Vostochny Cosmodrome (VOSTO). Payload-class satellites include a variety of spacecraft equipped with specific instruments for various scientific and technological missions. These include communications satellites like Starlink; space stations such as the ISS; scientific satellites like the Hubble; Earth observation satellites from companies like Planet Labs, Umbra, and HawkEye 360; GPS; miniature CubeSats for education and research; and military/defense satellites.

Loading next visibility...
Identifier
48073, 2021-025AH
Orbit
LEO
Country
Flag of UKUK
Related business
Manufacturer
One Web
Mission
Operational Commercial Communications
Bus & Motor
ARROW, Unknown motor
Mass
148 kg wet, ~140 kg dry
Launch date (UTC)
2021-03-25 (5 years ago)
Launch vehicle
SOYUZ-2-1B
Launch site
Vostochny Cosmodrome (VOSTO)
Object type
Payload
Rocket body
Debris
Shape & HBR
Trap Box + 2 Pan, 6.7 m
Radar Cross Section
3.464 m², Large (>1 m²)

Expand to show TLE details & history
Last TLE update: 2 days ago

TLE from 2 days ago
0 ONEWEB-0175
1 48073U 21025AH  26171.43780286 -.00000263  00000-0 -75643-3 0  9998
2 48073  87.8966 319.5564 0001584 105.3050 254.8254 13.13470846253910
Epoch: 2026-06-20T10:30Z
TLE epoch observation values (Epoch: 2026-06-20T10:30:26.167Z)
Latitude
-0.00003°
Longitude
-106.70506°
Altitude
1,212.969 km
Speed
7.248 km/s
True Right ascension
21h 18m 13s
True Declination
0° 00' 00"
Sunlit
Object was in full shadow at epoch
Visualization orbit readout
Latitude
Unknown
Longitude
Unknown
Altitude
Unknown
Speed
Unknown
Apparent Right ascension
Unknown
Apparent Declination
Unknown
Sunlit
N/A
Visualization observer readout
Local Sidereal Time
23:08:39
Azimuth
Unknown
Elevation
Unknown
Doppler factor
Unknown
Orbital elements
Apogee altitude
1,208.079 km
Perigee altitude
1,205.676 km
Semi-major axis
7,585.014 km
Eccentricity
0.00016
Inclination
87.8966°
RAAN
319.5564°
Arg. of periapsis
105.305°
True anomaly
254.80788°
Mean anomaly
254.8254°
Eccentric anomaly
254.81664°
Mean motion
3.28555 °/min
Orbital period
109.57 mins
BSTAR
-0.00075643
Loading maneuver chart data...
Computing Atmospheric mass density...
Loading historical data...
Loading historical data...
Loading historical data...
Loading historical data...
Loading historical data...
Loading historical data...
Loading historical data...

Documentation

Showing up to 5 results
|